Terminal Aerodrome Forecast
Issued by NWS

Home | Current Version | Previous Version | Text Only | Print | Product List | Glossary On
Versions: 1 2 3 4 5 6 7 8 9 10 11 12 13 14 15 16 17 18 19 20 21 22 23 24 25 26 27 28 29 30 31
000
FTPA31 PHFO 181728
TAFMDY
TAF
PMDY 181728Z 1818/1918 07018G25KT P6SM SCT025 BKN040
      TEMPO 1818/1822 BKN025 OVC040
     FM190300 07011G18KT P6SM SCT025 BKN045=

USA.gov is the U.S. government's official web portal to all federal, state and local government web resources and services.